TCCKM LTAC-LTFE

Flight info

Callsign TCCKM
Flight time N/A
Altitude 40000
Route HALIL UR32 TUMER/N0454F410 UT495 LAVTA UT44 KAVAK
Aircraft CL60/M-SBDE1E2E3FGHIJ1J4J5J7M3RWXYZ/LB1V1D1

Departure

Time N/A
Airport Esenboğa International Airport (LTAC)

Arrival

Time 2026-05-08 09:41
Airport Milas Bodrum International Airport (LTFE)
Time Latitude Longitude Altitude Speed Heading
2026-05-08 09:21 37.84515 28.80242 24989 ft 368 kts 220°
2026-05-08 09:22 37.71654 28.70755 22152 ft 358 kts 198°
2026-05-08 09:23 37.69150 28.70529 21669 ft 364 kts 182°
2026-05-08 09:23 37.66623 28.70712 21152 ft 363 kts 181°
2026-05-08 09:23 37.64116 28.70896 20687 ft 359 kts 181°
2026-05-08 09:23 37.61653 28.71074 20212 ft 355 kts 181°
2026-05-08 09:24 37.59179 28.71252 19738 ft 352 kts 181°
2026-05-08 09:24 37.56762 28.71425 19279 ft 348 kts 181°
2026-05-08 09:24 37.54335 28.71599 18809 ft 345 kts 180°
2026-05-08 09:24 37.51964 28.71768 18359 ft 341 kts 180°
2026-05-08 09:25 37.49614 28.71942 17906 ft 338 kts 179°
2026-05-08 09:25 37.47280 28.72164 17469 ft 334 kts 178°
2026-05-08 09:25 37.44993 28.72388 17026 ft 330 kts 178°
2026-05-08 09:25 37.42720 28.72610 16598 ft 327 kts 178°
2026-05-08 09:26 37.40441 28.72830 16155 ft 324 kts 179°
2026-05-08 09:26 37.38247 28.72681 15692 ft 316 kts 196°
2026-05-08 09:26 37.36276 28.71650 15213 ft 301 kts 217°
2026-05-08 09:26 37.34770 28.69953 14767 ft 289 kts 234°
2026-05-08 09:27 37.33763 28.67827 14297 ft 280 kts 248°
2026-05-08 09:27 37.32980 28.65635 13982 ft 270 kts 248°
2026-05-08 09:27 37.32204 28.63480 13621 ft 271 kts 248°
2026-05-08 09:27 37.31427 28.61323 13270 ft 272 kts 248°
2026-05-08 09:28 37.30643 28.59151 12910 ft 272 kts 248°
2026-05-08 09:28 37.29868 28.57006 12556 ft 270 kts 248°
2026-05-08 09:28 37.29096 28.54871 12199 ft 270 kts 248°
2026-05-08 09:28 37.28323 28.52735 11868 ft 268 kts 248°
2026-05-08 09:29 37.27552 28.50606 11632 ft 267 kts 248°
2026-05-08 09:29 37.26784 28.48485 11468 ft 267 kts 248°
2026-05-08 09:29 37.26010 28.46349 11207 ft 268 kts 248°
2026-05-08 09:29 37.25248 28.44250 10961 ft 266 kts 248°
2026-05-08 09:30 37.24484 28.42146 10708 ft 266 kts 248°
2026-05-08 09:30 37.23714 28.40027 10455 ft 265 kts 248°
2026-05-08 09:30 37.22951 28.37929 10205 ft 264 kts 248°
2026-05-08 09:30 37.22195 28.35852 9978 ft 263 kts 248°
2026-05-08 09:31 37.21433 28.33757 9595 ft 270 kts 247°
2026-05-08 09:31 37.20646 28.31599 9299 ft 264 kts 247°
2026-05-08 09:31 37.19894 28.29539 9065 ft 260 kts 247°
2026-05-08 09:31 37.19150 28.27502 8808 ft 257 kts 246°
2026-05-08 09:32 37.18413 28.25482 8570 ft 252 kts 246°
2026-05-08 09:32 37.17683 28.23484 8321 ft 248 kts 246°
2026-05-08 09:32 37.16981 28.21566 8106 ft 242 kts 246°
2026-05-08 09:32 37.16288 28.19671 7872 ft 237 kts 247°
2026-05-08 09:33 37.15606 28.17809 7671 ft 231 kts 246°
2026-05-08 09:33 37.14939 28.15989 7445 ft 228 kts 246°
2026-05-08 09:33 37.14301 28.14205 7239 ft 223 kts 251°
2026-05-08 09:33 37.14118 28.12325 7021 ft 219 kts 280°
2026-05-08 09:34 37.14517 28.10496 6831 ft 216 kts 288°
2026-05-08 09:34 37.14964 28.08684 6643 ft 217 kts 288°
2026-05-08 09:34 37.15399 28.06896 6443 ft 218 kts 288°
2026-05-08 09:34 37.15842 28.05074 6275 ft 215 kts 287°
2026-05-08 09:35 37.16277 28.03280 6087 ft 218 kts 287°
2026-05-08 09:35 37.16714 28.01474 5889 ft 217 kts 288°
2026-05-08 09:35 37.17156 27.99650 5702 ft 217 kts 287°
2026-05-08 09:35 37.17582 27.97872 5477 ft 215 kts 287°
2026-05-08 09:36 37.18011 27.96079 5239 ft 212 kts 288°
2026-05-08 09:36 37.18433 27.94325 5014 ft 207 kts 288°
2026-05-08 09:36 37.18842 27.92629 4834 ft 201 kts 288°
2026-05-08 09:36 37.19259 27.90904 4710 ft 214 kts 288°
2026-05-08 09:37 37.19689 27.89122 4311 ft 212 kts 288°
2026-05-08 09:37 37.20105 27.87393 3983 ft 204 kts 288°
2026-05-08 09:37 37.20505 27.85732 3643 ft 197 kts 288°
2026-05-08 09:37 37.20895 27.84111 3311 ft 192 kts 288°
2026-05-08 09:38 37.21279 27.82511 2984 ft 187 kts 288°
2026-05-08 09:38 37.21637 27.81023 2644 ft 170 kts 288°
2026-05-08 09:38 37.21954 27.79693 2430 ft 149 kts 289°
2026-05-08 09:38 37.22233 27.78532 2192 ft 134 kts 289°
2026-05-08 09:39 37.22504 27.77406 1954 ft 135 kts 288°
2026-05-08 09:39 37.22772 27.76277 1734 ft 133 kts 287°
2026-05-08 09:39 37.23031 27.75192 1523 ft 130 kts 287°
2026-05-08 09:39 37.23293 27.74105 1316 ft 129 kts 287°
2026-05-08 09:40 37.23552 27.73039 1120 ft 128 kts 287°
2026-05-08 09:40 37.23806 27.71977 900 ft 126 kts 286°
2026-05-08 09:40 37.24059 27.70921 656 ft 126 kts 287°
2026-05-08 09:40 37.24311 27.69873 430 ft 125 kts 286°
2026-05-08 09:41 37.24561 27.68828 229 ft 123 kts 285°
2026-05-08 09:41 37.24804 27.67811 44 ft 119 kts 285°
2026-05-08 09:41 37.25010 27.66946 25 ft 79 kts 288°
2026-05-08 09:41 37.25120 27.66493 22 ft 43 kts 286°
2026-05-08 09:42 37.25202 27.66147 19 ft 40 kts 287°
2026-05-08 09:42 37.25259 27.65899 17 ft 11 kts 280°
2026-05-08 09:42 37.25250 27.65780 17 ft 15 kts 257°
2026-05-08 09:42 37.25231 27.65676 16 ft 8 kts 257°
2026-05-08 09:43 37.25215 27.65585 16 ft 12 kts 258°
2026-05-08 09:43 37.25162 27.65578 16 ft 12 kts 111°
2026-05-08 09:43 37.25131 27.65706 16 ft 17 kts 107°
2026-05-08 09:43 37.25092 27.65868 17 ft 21 kts 107°
2026-05-08 09:44 37.25056 27.65964 18 ft 8 kts 160°
2026-05-08 09:44 37.24994 27.65946 18 ft 10 kts 199°
2026-05-08 09:44 37.24931 27.65924 18 ft 9 kts 192°
2026-05-08 09:44 37.24863 27.65901 18 ft 8 kts 167°
2026-05-08 09:45 37.24833 27.65982 19 ft 12 kts 107°
2026-05-08 09:45 37.24807 27.66088 20 ft 10 kts 107°
2026-05-08 09:45 37.24797 27.66134 20 ft 2 kts 97°
2026-05-08 09:45 37.24807 27.66147 20 ft 3 kts 19°
2026-05-08 09:46 37.24836 27.66157 20 ft 1 kts 17°
2026-05-08 09:46 37.24839 27.66159 20 ft 0 kts 17°